"Time","Value","Approval","myLocation"
"2023-05-07 00:00",6.18362114291041,"Working","OW197"
"2023-05-07 01:00",6.18662142257854,"Working","OW197"
"2023-05-07 02:00",6.18772170224667,"Working","OW197"
"2023-05-07 03:00",6.18802198191479,"Working","OW197"
"2023-05-07 04:00",6.18692226158292,"Working","OW197"
"2023-05-07 05:00",6.18442254125105,"Working","OW197"
"2023-05-07 06:00",6.18362282091918,"Working","OW197"
"2023-05-07 07:00",6.1839231005873,"Working","OW197"
"2023-05-07 08:00",6.18522338025543,"Working","OW197"
"2023-05-07 09:00",6.18872365992356,"Working","OW197"
"2023-05-07 10:00",6.19332393959168,"Working","OW197"
"2023-05-07 11:00",6.19982421925981,"Working","OW197"
"2023-05-07 12:00",6.20732449892794,"Working","OW197"
"2023-05-07 13:00",6.21322477859607,"Working","OW197"
"2023-05-07 14:00",6.21632505826419,"Working","OW197"
"2023-05-07 15:00",6.21752533793232,"Working","OW197"
"2023-05-07 16:00",6.21672561760045,"Working","OW197"
"2023-05-07 17:00",6.21502589726857,"Working","OW197"
"2023-05-07 18:00",6.2094261769367,"Working","OW197"
"2023-05-07 19:00",6.20642645660483,"Working","OW197"
"2023-05-07 20:00",6.20142673627296,"Working","OW197"
"2023-05-07 21:00",6.20042701594108,"Working","OW197"
"2023-05-07 22:00",6.19962729560921,"Working","OW197"
"2023-05-07 23:00",6.20092757527734,"Working","OW197"
"2023-05-08 00:00",6.20442785494546,"Working","OW197"
"2023-05-08 01:00",6.20642813461359,"Working","OW197"
"2023-05-08 02:00",6.20732841428172,"Working","OW197"
"2023-05-08 03:00",6.20902869394985,"Working","OW197"
"2023-05-08 04:00",6.20852897361797,"Working","OW197"
"2023-05-08 05:00",6.2087292532861,"Working","OW197"
"2023-05-08 06:00",6.20682953295423,"Working","OW197"
"2023-05-08 07:00",6.20662981262236,"Working","OW197"
"2023-05-08 08:00",6.20853009229048,"Working","OW197"
"2023-05-08 09:00",6.20893037195861,"Working","OW197"
"2023-05-08 10:00",6.21323065162674,"Working","OW197"
"2023-05-08 11:00",6.21853093129486,"Working","OW197"
"2023-05-08 12:00",6.22533121096299,"Working","OW197"
"2023-05-08 13:00",6.23223149063112,"Working","OW197"
"2023-05-08 14:00",6.23813177029924,"Working","OW197"
"2023-05-08 15:00",6.24003204996737,"Working","OW197"
"2023-05-08 16:00",6.2396323296355,"Working","OW197"
"2023-05-08 17:00",6.23783260930363,"Working","OW197"
"2023-05-08 18:00",6.23353288897175,"Working","OW197"
"2023-05-08 19:00",6.23123316863988,"Working","OW197"
"2023-05-08 20:00",6.22773344830801,"Working","OW197"
"2023-05-08 21:00",6.22483372797613,"Working","OW197"
"2023-05-08 22:00",6.22393400764426,"Working","OW197"
"2023-05-08 23:00",6.22393428731239,"Working","OW197"
"2023-05-09 00:00",6.22633456698052,"Working","OW197"
"2023-05-09 01:00",6.22753484664864,"Working","OW197"
"2023-05-09 02:00",6.22983512631677,"Working","OW197"
"2023-05-09 03:00",6.2307354059849,"Working","OW197"
"2023-05-09 04:00",6.23323568565302,"Working","OW197"
"2023-05-09 05:00",6.23303596532115,"Working","OW197"
"2023-05-09 06:00",6.23183624498928,"Working","OW197"
"2023-05-09 07:00",6.23333652465741,"Working","OW197"
"2023-05-09 08:00",6.23183680432553,"Working","OW197"
"2023-05-09 09:00",6.23513708399366,"Working","OW197"
"2023-05-09 10:00",6.23973736366179,"Working","OW197"
"2023-05-09 11:00",6.24463764332991,"Working","OW197"
"2023-05-09 12:00",6.25033792299804,"Working","OW197"
"2023-05-09 13:00",6.26033820266617,"Working","OW197"
"2023-05-09 14:00",6.2636384823343,"Working","OW197"
"2023-05-09 15:00",6.26963876200242,"Working","OW197"
"2023-05-09 16:00",6.27013904167055,"Working","OW197"
"2023-05-09 17:00",6.26973932133868,"Working","OW197"
"2023-05-09 18:00",6.2701396010068,"Working","OW197"
"2023-05-09 19:00",6.26843988067493,"Working","OW197"
"2023-05-09 20:00",6.26464016034306,"Working","OW197"
"2023-05-09 21:00",6.26304044001119,"Working","OW197"
"2023-05-09 22:00",6.25864071967931,"Working","OW197"
"2023-05-09 23:00",6.25954099934744,"Working","OW197"
"2023-05-10 00:00",6.25914127901557,"Working","OW197"
"2023-05-10 01:00",6.2592415586837,"Working","OW197"
"2023-05-10 02:00",6.26074183835182,"Working","OW197"
"2023-05-10 03:00",6.26214211801995,"Working","OW197"
"2023-05-10 04:00",6.26464239768808,"Working","OW197"
"2023-05-10 05:00",6.2637426773562,"Working","OW197"
"2023-05-10 06:00",6.26214295702433,"Working","OW197"
"2023-05-10 07:00",6.26354323669246,"Working","OW197"
"2023-05-10 08:00",6.26244351636059,"Working","OW197"
"2023-05-10 09:00",6.26174379602871,"Working","OW197"
"2023-05-10 10:00",6.26284407569684,"Working","OW197"
"2023-05-10 11:00",6.26614435536497,"Working","OW197"
"2023-05-10 12:00",6.26904463503309,"Working","OW197"
"2023-05-10 13:00",6.27444491470122,"Working","OW197"
"2023-05-10 14:00",6.27894519436935,"Working","OW197"
"2023-05-10 15:00",6.28244547403748,"Working","OW197"
"2023-05-10 16:00",6.2857457537056,"Working","OW197"
"2023-05-10 17:00",6.28814603337373,"Working","OW197"
"2023-05-10 18:00",6.28934631304186,"Working","OW197"
"2023-05-10 19:00",6.28664659270998,"Working","OW197"
"2023-05-10 20:00",6.28454687237811,"Working","OW197"
"2023-05-10 21:00",6.28244715204624,"Working","OW197"
"2023-05-10 22:00",6.28064743171437,"Working","OW197"
"2023-05-10 23:00",6.27744771138249,"Working","OW197"
"2023-05-11 00:00",6.27554799105062,"Working","OW197"
"2023-05-11 01:00",6.27374827071875,"Working","OW197"
"2023-05-11 02:00",6.27634855038687,"Working","OW197"
"2023-05-11 03:00",6.276348830055,"Working","OW197"
"2023-05-11 04:00",6.27864910972313,"Working","OW197"
"2023-05-11 05:00",6.27964938939126,"Working","OW197"
"2023-05-11 06:00",6.28214966905938,"Working","OW197"
"2023-05-11 07:00",6.28154994872751,"Working","OW197"
"2023-05-11 08:00",6.28155022839564,"Working","OW197"
"2023-05-11 09:00",6.28095050806377,"Working","OW197"
"2023-05-11 10:00",6.28135078773189,"Working","OW197"
"2023-05-11 11:00",6.28375106740002,"Working","OW197"
"2023-05-11 12:00",6.28695134706815,"Working","OW197"
"2023-05-11 13:00",6.28925162673627,"Working","OW197"
"2023-05-11 14:00",6.2940519064044,"Working","OW197"
"2023-05-11 15:00",6.29785218607253,"Working","OW197"
"2023-05-11 16:00",6.30245246574065,"Working","OW197"
"2023-05-11 17:00",6.30615274540878,"Working","OW197"
"2023-05-11 18:00",6.30845302507691,"Working","OW197"
"2023-05-11 19:00",6.30945330474504,"Working","OW197"
"2023-05-11 20:00",6.30825358441316,"Working","OW197"
"2023-05-11 21:00",6.30625386408129,"Working","OW197"
"2023-05-11 22:00",6.30385414374942,"Working","OW197"
"2023-05-11 23:00",6.30195442341754,"Working","OW197"
"2023-05-12 00:00",6.30075470308567,"Working","OW197"
"2023-05-12 01:00",6.3002549827538,"Working","OW197"
"2023-05-12 02:00",6.29945526242193,"Working","OW197"
"2023-05-12 03:00",6.30245554209005,"Working","OW197"
"2023-05-12 04:00",6.30405582175818,"Working","OW197"
"2023-05-12 05:00",6.30605610142631,"Working","OW197"
"2023-05-12 06:00",6.30855638109443,"Working","OW197"
"2023-05-12 07:00",6.31095666076256,"Working","OW197"
"2023-05-12 08:00",6.31095694043069,"Working","OW197"
"2023-05-12 09:00",6.31135722009882,"Working","OW197"
"2023-05-12 10:00",6.31065749976694,"Working","OW197"
"2023-05-12 11:00",6.31285777943507,"Working","OW197"
"2023-05-12 12:00",6.3151580591032,"Working","OW197"
"2023-05-12 13:00",6.31535833877132,"Working","OW197"
"2023-05-12 14:00",6.31745861843945,"Working","OW197"
"2023-05-12 15:00",6.32035889810758,"Working","OW197"
"2023-05-12 16:00",6.32455917777571,"Working","OW197"
"2023-05-12 17:00",6.32735945744383,"Working","OW197"
"2023-05-12 18:00",6.32955973711196,"Working","OW197"
"2023-05-12 19:00",6.33096001678009,"Working","OW197"
"2023-05-12 20:00",6.33476029644822,"Working","OW197"
"2023-05-12 21:00",6.33356057611634,"Working","OW197"
"2023-05-12 22:00",6.33186085578447,"Working","OW197"
"2023-05-12 23:00",6.3301611354526,"Working","OW197"
"2023-05-13 00:00",6.32796141512072,"Working","OW197"
"2023-05-13 01:00",6.32756169478885,"Working","OW197"
"2023-05-13 02:00",6.32606197445698,"Working","OW197"
"2023-05-13 03:00",6.3247622541251,"Working","OW197"
"2023-05-13 04:00",6.32726253379323,"Working","OW197"
"2023-05-13 05:00",6.32836281346136,"Working","OW197"
"2023-05-13 06:00",6.33106309312949,"Working","OW197"
"2023-05-13 07:00",6.33306337279761,"Working","OW197"
"2023-05-13 08:00",6.33546365246574,"Working","OW197"
"2023-05-13 09:00",6.33626393213387,"Working","OW197"
"2023-05-13 10:00",6.33836421180199,"Working","OW197"
"2023-05-13 11:00",6.33696449147012,"Working","OW197"
"2023-05-13 12:00",6.33736477113825,"Working","OW197"
"2023-05-13 13:00",6.33716505080638,"Working","OW197"
"2023-05-13 14:00",6.3367653304745,"Working","OW197"
"2023-05-13 15:00",6.33896561014263,"Working","OW197"
"2023-05-13 16:00",6.34236588981076,"Working","OW197"
"2023-05-13 17:00",6.34436616947889,"Working","OW197"
"2023-05-13 18:00",6.34666644914701,"Working","OW197"
"2023-05-13 19:00",6.34836672881514,"Working","OW197"
"2023-05-13 20:00",6.35366700848327,"Working","OW197"
"2023-05-13 21:00",6.35426728815139,"Working","OW197"
"2023-05-13 22:00",6.35286756781952,"Working","OW197"
"2023-05-13 23:00",6.34976784748765,"Working","OW197"
"2023-05-14 00:00",6.34596812715577,"Working","OW197"
"2023-05-14 01:00",6.3445684068239,"Working","OW197"
"2023-05-14 02:00",6.34366868649203,"Working","OW197"
"2023-05-14 03:00",6.34166896616016,"Working","OW197"
"2023-05-14 04:00",6.34476924582828,"Working","OW197"
"2023-05-14 05:00",6.34326952549641,"Working","OW197"
"2023-05-14 06:00",6.34506980516454,"Working","OW197"
"2023-05-14 07:00",6.34907008483266,"Working","OW197"
"2023-05-14 08:00",6.34967036450079,"Working","OW197"
"2023-05-14 09:00",6.35357064416892,"Working","OW197"
"2023-05-14 10:00",6.35297092383705,"Working","OW197"
"2023-05-14 11:00",6.35207120350517,"Working","OW197"
"2023-05-14 12:00",6.3503714831733,"Working","OW197"
"2023-05-14 13:00",6.34857176284143,"Working","OW197"
"2023-05-14 14:00",6.34797204250956,"Working","OW197"
"2023-05-14 15:00",6.34577232217768,"Working","OW197"
"2023-05-14 16:00",6.34507260184581,"Working","OW197"
"2023-05-14 17:00",6.34717288151394,"Working","OW197"
"2023-05-14 18:00",6.34907316118206,"Working","OW197"
"2023-05-14 19:00",6.35347344085019,"Working","OW197"
"2023-05-14 20:00",6.35727372051832,"Working","OW197"
"2023-05-14 21:00",6.36067400018645,"Working","OW197"
"2023-05-14 22:00",6.36137427985457,"Working","OW197"
"2023-05-14 23:00",6.3577745595227,"Working","OW197"
"2023-05-15 00:00",6.35727483919083,"Working","OW197"
"2023-05-15 01:00",6.35617511885895,"Working","OW197"
"2023-05-15 02:00",6.35457539852708,"Working","OW197"
"2023-05-15 03:00",6.35257567819521,"Working","OW197"
"2023-05-15 04:00",6.34947595786334,"Working","OW197"
"2023-05-15 05:00",6.35197623753146,"Working","OW197"
"2023-05-15 06:00",6.35427651719959,"Working","OW197"
"2023-05-15 07:00",6.35877679686772,"Working","OW197"
"2023-05-15 08:00",6.36297707653584,"Working","OW197"
"2023-05-15 09:00",6.36487735620397,"Working","OW197"
"2023-05-15 10:00",6.3681776358721,"Working","OW197"
"2023-05-15 11:00",6.37027791554023,"Working","OW197"
"2023-05-15 12:00",6.36867819520835,"Working","OW197"
"2023-05-15 13:00",6.36687847487648,"Working","OW197"
"2023-05-15 14:00",6.36387875454461,"Working","OW197"
"2023-05-15 15:00",6.36007903421273,"Working","OW197"
"2023-05-15 16:00",6.35847931388086,"Working","OW197"
"2023-05-15 17:00",6.35997959354899,"Working","OW197"
"2023-05-15 18:00",6.36047987321712,"Working","OW197"
"2023-05-15 19:00",6.36228015288524,"Working","OW197"
"2023-05-15 20:00",6.36448043255337,"Working","OW197"
"2023-05-15 21:00",6.3668807122215,"Working","OW197"
"2023-05-15 22:00",6.37138099188962,"Working","OW197"
"2023-05-15 23:00",6.37278127155775,"Working","OW197"
"2023-05-16 00:00",6.37758155122588,"Working","OW197"
"2023-05-16 01:00",6.37228183089401,"Working","OW197"
"2023-05-16 02:00",6.37258211056213,"Working","OW197"
"2023-05-16 03:00",6.37508239023026,"Working","OW197"
"2023-05-16 04:00",6.37438266989839,"Working","OW197"
"2023-05-16 05:00",6.37358294956651,"Working","OW197"
"2023-05-16 06:00",6.38088322923464,"Working","OW197"
"2023-05-16 07:00",6.38448350890277,"Working","OW197"
"2023-05-16 08:00",6.3867837885709,"Working","OW197"
"2023-05-16 09:00",6.39318406823902,"Working","OW197"
"2023-05-16 10:00",6.39768434790715,"Working","OW197"
"2023-05-16 11:00",6.40168462757528,"Working","OW197"
"2023-05-16 12:00",6.4006849072434,"Working","OW197"
"2023-05-16 13:00",6.40088518691153,"Working","OW197"
"2023-05-16 14:00",6.39728546657966,"Working","OW197"
"2023-05-16 15:00",6.39428574624779,"Working","OW197"
"2023-05-16 16:00",6.39098602591591,"Working","OW197"
"2023-05-16 17:00",6.38768630558404,"Working","OW197"
"2023-05-16 18:00",6.38408658525217,"Working","OW197"
"2023-05-16 19:00",6.38848686492029,"Working","OW197"
"2023-05-16 20:00",6.38828714458842,"Working","OW197"
"2023-05-16 21:00",6.39328742425655,"Working","OW197"
"2023-05-16 22:00",6.39368770392468,"Working","OW197"
"2023-05-16 23:00",6.4028879835928,"Working","OW197"
"2023-05-17 00:00",6.39738826326093,"Working","OW197"
"2023-05-17 01:00",6.39718854292906,"Working","OW197"
"2023-05-17 02:00",6.39708882259718,"Working","OW197"
"2023-05-17 03:00",6.39308910226531,"Working","OW197"
"2023-05-17 04:00",6.39068938193344,"Working","OW197"
"2023-05-17 05:00",6.39138966160157,"Working","OW197"
"2023-05-17 06:00",6.39348994126969,"Working","OW197"
"2023-05-17 07:00",6.39749022093782,"Working","OW197"
"2023-05-17 08:00",6.40159050060595,"Working","OW197"
"2023-05-17 09:00",6.40699078027407,"Working","OW197"
"2023-05-17 10:00",6.4099910599422,"Working","OW197"
"2023-05-17 11:00",6.41459133961033,"Working","OW197"
"2023-05-17 12:00",6.41569161927846,"Working","OW197"
"2023-05-17 13:00",6.41609189894658,"Working","OW197"
"2023-05-17 14:00",6.41239217861471,"Working","OW197"
"2023-05-17 15:00",6.40629245828284,"Working","OW197"
"2023-05-17 16:00",6.40189273795097,"Working","OW197"
"2023-05-17 17:00",6.39789301761909,"Working","OW197"
"2023-05-17 18:00",6.39409329728722,"Working","OW197"
"2023-05-17 19:00",6.39389357695535,"Working","OW197"
"2023-05-17 20:00",6.39359385662347,"Working","OW197"
"2023-05-17 21:00",6.3983941362916,"Working","OW197"
"2023-05-17 22:00",6.40009441595973,"Working","OW197"
"2023-05-17 23:00",6.40269469562786,"Working","OW197"
"2023-05-18 00:00",6.40509497529598,"Working","OW197"
"2023-05-18 01:00",6.40569525496411,"Working","OW197"
"2023-05-18 02:00",6.40519553463224,"Working","OW197"
"2023-05-18 03:00",6.40189581430036,"Working","OW197"
"2023-05-18 04:00",6.40009609396849,"Working","OW197"
"2023-05-18 05:00",6.40009637363662,"Working","OW197"
"2023-05-18 06:00",6.40109665330475,"Working","OW197"
"2023-05-18 07:00",6.40429693297287,"Working","OW197"
"2023-05-18 08:00",6.408597212641,"Working","OW197"
"2023-05-18 09:00",6.41319749230913,"Working","OW197"
"2023-05-18 10:00",6.41999777197725,"Working","OW197"
"2023-05-18 11:00",6.42419805164538,"Working","OW197"
"2023-05-18 12:00",6.42649833131351,"Working","OW197"
"2023-05-18 13:00",6.42969861098164,"Working","OW197"
"2023-05-18 14:00",6.42909889064976,"Working","OW197"
"2023-05-18 15:00",6.42589917031789,"Working","OW197"
"2023-05-18 16:00",6.42109944998602,"Working","OW197"
"2023-05-18 17:00",6.41569972965414,"Working","OW197"
"2023-05-18 18:00",6.41250000932227,"Working","OW197"
"2023-05-18 19:00",6.4114002889904,"Working","OW197"
"2023-05-18 20:00",6.41270056865852,"Working","OW197"
"2023-05-18 21:00",6.41410084832665,"Working","OW197"
"2023-05-18 22:00",6.41740112799478,"Working","OW197"
"2023-05-18 23:00",6.42140140766291,"Working","OW197"
"2023-05-19 00:00",6.42400168733103,"Working","OW197"
"2023-05-19 01:00",6.42630196699916,"Working","OW197"
"2023-05-19 02:00",6.42840224666729,"Working","OW197"
"2023-05-19 03:00",6.42640252633542,"Working","OW197"
"2023-05-19 04:00",6.42630280600354,"Working","OW197"
"2023-05-19 05:00",6.42530308567167,"Working","OW197"
"2023-05-19 06:00",6.4269033653398,"Working","OW197"
"2023-05-19 07:00",6.42890364500792,"Working","OW197"
"2023-05-19 08:00",6.43370392467605,"Working","OW197"
"2023-05-19 09:00",6.44190420434418,"Working","OW197"
"2023-05-19 10:00",6.44700448401231,"Working","OW197"
"2023-05-19 11:00",6.45340476368043,"Working","OW197"
"2023-05-19 12:00",6.45860504334856,"Working","OW197"
"2023-05-19 13:00",6.46190532301669,"Working","OW197"
"2023-05-19 14:00",6.46080560268481,"Working","OW197"
"2023-05-19 15:00",6.46020588235294,"Working","OW197"
"2023-05-19 16:00",6.45550616202107,"Working","OW197"
"2023-05-19 17:00",6.4512064416892,"Working","OW197"
"2023-05-19 18:00",6.44680672135732,"Working","OW197"
"2023-05-19 19:00",6.44220700102545,"Working","OW197"
"2023-05-19 20:00",6.44090728069358,"Working","OW197"
"2023-05-19 21:00",6.4408075603617,"Working","OW197"
"2023-05-19 22:00",6.44250784002983,"Working","OW197"
"2023-05-19 23:00",6.44560811969796,"Working","OW197"
"2023-05-20 00:00",6.44780839936609,"Working","OW197"
"2023-05-20 01:00",6.45160867903421,"Working","OW197"
"2023-05-20 02:00",6.45220895870234,"Working","OW197"
"2023-05-20 03:00",6.45220923837047,"Working","OW197"
"2023-05-20 04:00",6.45210951803859,"Working","OW197"
"2023-05-20 05:00",6.45020979770672,"Working","OW197"
"2023-05-20 06:00",6.44971007737485,"Working","OW197"
"2023-05-20 07:00",6.45221035704298,"Working","OW197"
"2023-05-20 08:00",6.4552106367111,"Working","OW197"
"2023-05-20 09:00",6.45771091637923,"Working","OW197"
"2023-05-20 10:00",6.46281119604736,"Working","OW197"
"2023-05-20 11:00",6.47161147571549,"Working","OW197"
"2023-05-20 12:00",6.47801175538361,"Working","OW197"
"2023-05-20 13:00",6.48141203505174,"Working","OW197"
"2023-05-20 14:00",6.48511231471987,"Working","OW197"
"2023-05-20 15:00",6.48581259438799,"Working","OW197"
"2023-05-20 16:00",6.48431287405612,"Working","OW197"
"2023-05-20 17:00",6.48011315372425,"Working","OW197"
"2023-05-20 18:00",6.47611343339237,"Working","OW197"
"2023-05-20 19:00",6.4730137130605,"Working","OW197"
"2023-05-20 20:00",6.47001399272863,"Working","OW197"
"2023-05-20 21:00",6.46951427239676,"Working","OW197"
"2023-05-20 22:00",6.46941455206488,"Working","OW197"
"2023-05-20 23:00",6.47331483173301,"Working","OW197"
"2023-05-21 00:00",6.47651511140114,"Working","OW197"
"2023-05-21 01:00",6.47881539106926,"Working","OW197"
"2023-05-21 02:00",6.47941567073739,"Working","OW197"
"2023-05-21 03:00",6.48071595040552,"Working","OW197"
"2023-05-21 04:00",6.47971623007365,"Working","OW197"
"2023-05-21 05:00",6.47951650974177,"Working","OW197"
"2023-05-21 06:00",6.4790167894099,"Working","OW197"
"2023-05-21 07:00",6.47951706907803,"Working","OW197"
"2023-05-21 08:00",6.48061734874615,"Working","OW197"
"2023-05-21 09:00",6.48551762841428,"Working","OW197"
"2023-05-21 10:00",6.49121790808241,"Working","OW197"
"2023-05-21 11:00",6.49751818775054,"Working","OW197"
"2023-05-21 12:00",6.50301846741866,"Working","OW197"
"2023-05-21 13:00",6.50721874708679,"Working","OW197"
"2023-05-21 14:00",6.51081902675492,"Working","OW197"
"2023-05-21 15:00",6.51171930642304,"Working","OW197"
"2023-05-21 16:00",6.51111958609117,"Working","OW197"
"2023-05-21 17:00",6.5089198657593,"Working","OW197"
"2023-05-21 18:00",6.50262014542743,"Working","OW197"
"2023-05-21 19:00",6.49852042509555,"Working","OW197"
"2023-05-21 20:00",6.49712070476368,"Working","OW197"
"2023-05-21 21:00",6.49702098443181,"Working","OW197"
"2023-05-21 22:00",6.49622126409993,"Working","OW197"
"2023-05-21 23:00",6.49612154376806,"Working","OW197"
"2023-05-22 00:00",6.49762182343619,"Working","OW197"
"2023-05-22 01:00",6.50042210310432,"Working","OW197"
"2023-05-22 02:00",6.50222238277244,"Working","OW197"
"2023-05-22 03:00",6.50042266244057,"Working","OW197"
"2023-05-22 04:00",6.5018229421087,"Working","OW197"
"2023-05-22 05:00",6.50252322177683,"Working","OW197"
"2023-05-22 06:00",6.50112350144495,"Working","OW197"
"2023-05-22 07:00",6.50122378111308,"Working","OW197"
"2023-05-22 08:00",6.50282406078121,"Working","OW197"
"2023-05-22 09:00",6.50382434044933,"Working","OW197"
"2023-05-22 10:00",6.50612462011746,"Working","OW197"
"2023-05-22 11:00",6.51242489978559,"Working","OW197"
"2023-05-22 12:00",6.51912517945371,"Working","OW197"
"2023-05-22 13:00",6.52222545912184,"Working","OW197"
"2023-05-22 14:00",6.52592573878997,"Working","OW197"
"2023-05-22 15:00",6.5314260184581,"Working","OW197"
"2023-05-22 16:00",6.53132629812622,"Working","OW197"
"2023-05-22 17:00",6.52992657779435,"Working","OW197"
"2023-05-22 18:00",6.52662685746248,"Working","OW197"
"2023-05-22 19:00",6.5226271371306,"Working","OW197"
"2023-05-22 20:00",6.52052741679873,"Working","OW197"
"2023-05-22 21:00",6.51782769646686,"Working","OW197"
"2023-05-22 22:00",6.51692797613499,"Working","OW197"
"2023-05-22 23:00",6.52052825580311,"Working","OW197"
"2023-05-23 00:00",6.51912853547124,"Working","OW197"
"2023-05-23 01:00",6.52122881513937,"Working","OW197"
"2023-05-23 02:00",6.5230290948075,"Working","OW197"
"2023-05-23 03:00",6.52402937447562,"Working","OW197"
"2023-05-23 04:00",6.52532965414375,"Working","OW197"
"2023-05-23 05:00",6.52532993381188,"Working","OW197"
"2023-05-23 06:00",6.52643021348,"Working","OW197"
"2023-05-23 07:00",6.52623049314813,"Working","OW197"
"2023-05-23 08:00",6.52363077281626,"Working","OW197"
"2023-05-23 09:00",6.52643105248438,"Working","OW197"
"2023-05-23 10:00",6.52683133215251,"Working","OW197"
"2023-05-23 11:00",6.53083161182064,"Working","OW197"
"2023-05-23 12:00",6.53763189148877,"Working","OW197"
"2023-05-23 13:00",6.54323217115689,"Working","OW197"
"2023-05-23 14:00",6.54603245082502,"Working","OW197"
"2023-05-23 15:00",6.54893273049315,"Working","OW197"
"2023-05-23 16:00",6.54953301016128,"Working","OW197"
"2023-05-23 17:00",6.5496332898294,"Working","OW197"
"2023-05-23 18:00",6.54593356949753,"Working","OW197"
"2023-05-23 19:00",6.54323384916566,"Working","OW197"
"2023-05-23 20:00",6.53863412883378,"Working","OW197"
"2023-05-23 21:00",6.53673440850191,"Working","OW197"
"2023-05-23 22:00",6.53503468817004,"Working","OW197"
"2023-05-23 23:00",6.53513496783817,"Working","OW197"
"2023-05-24 00:00",6.53453524750629,"Working","OW197"
"2023-05-24 01:00",6.53543552717442,"Working","OW197"
"2023-05-24 02:00",6.53813580684255,"Working","OW197"
"2023-05-24 03:00",6.53903608651067,"Working","OW197"
"2023-05-24 04:00",6.5415363661788,"Working","OW197"
"2023-05-24 05:00",6.54163664584693,"Working","OW197"
"2023-05-24 06:00",6.54153692551506,"Working","OW197"
"2023-05-24 07:00",6.54143720518318,"Working","OW197"
"2023-05-24 08:00",6.53913748485131,"Working","OW197"
"2023-05-24 09:00",6.53893776451944,"Working","OW197"
"2023-05-24 10:00",6.54153804418756,"Working","OW197"
"2023-05-24 11:00",6.54433832385569,"Working","OW197"
"2023-05-24 12:00",6.54733860352382,"Working","OW197"
"2023-05-24 13:00",6.55203888319195,"Working","OW197"
"2023-05-24 14:00",6.55573916286007,"Working","OW197"
"2023-05-24 15:00",6.5590394425282,"Working","OW197"
"2023-05-24 16:00",6.56313972219633,"Working","OW197"
"2023-05-24 17:00",6.56234000186445,"Working","OW197"
"2023-05-24 18:00",6.55864028153258,"Working","OW197"
"2023-05-24 19:00",6.56014056120071,"Working","OW197"
"2023-05-24 20:00",6.55634084086884,"Working","OW197"
"2023-05-24 21:00",6.55354112053696,"Working","OW197"
"2023-05-24 22:00",6.55244140020509,"Working","OW197"
"2023-05-24 23:00",6.54924167987322,"Working","OW197"
"2023-05-25 00:00",6.55064195954134,"Working","OW197"
"2023-05-25 01:00",6.55224223920947,"Working","OW197"
"2023-05-25 02:00",6.5525425188776,"Working","OW197"
"2023-05-25 03:00",6.55454279854573,"Working","OW197"